Regional Weather Roundup
Issued by NWS Northern Indiana

Home | Current Version | Previous Version | Text Only | Print | Product List | Glossary On
Versions: 1 2 3 4 5 6 7 8 9 10 11 12 13 14 15 16 17 18 19 20 21 22 23 24 25 26 27 28 29 30 31 32 33 34 35 36 37 38 39 40 41 42 43 44 45 46 47 48 49 50
000
ASUS43 KIWX 281210
RWRIWX

KIWX WEATHER ROUNDUP
NATIONAL WEATHER SERVICE NORTHERN INDIANA
800 AM EDT FRI AUG 28 2015

NOTE: "FAIR" INDICATES FEW OR NO CLOUDS BELOW 12,000 FEET WITH NO
SIGNIFICANT WEATHER AND/OR OBSTRUCTIONS TO VISIBILITY.

* THESE STATIONS ARE NOT UNDER NWS QUALITY CONTROL. THEY ALSO MAY NOT
  REPORT WEATHER SUCH AS PRECIPITATION OR FOG.

INZ001>027-281300-
NORTHERN INDIANA

CITY           SKY/WX    TMP DP  RH WIND       PRES   REMARKS
GARY*          PTCLDY    59  55  88 SE6       30.14R
VALPARAISO     CLEAR     54  53  97 NE5       30.16R FOG
6HR MIN TEMP:  53; 6HR MAX TEMP:  56;

MICHIGAN CITY* CLEAR     59  55  88 CALM      30.15R
LAPORTE*         N/A    N/A N/A N/A CALM      30.17R FOG
KNOX*          CLEAR     54  54 100 SE5       30.15R
SOUTH BEND     CLEAR     56  54  93 E5        30.17R FOG
6HR MIN TEMP:  54; 6HR MAX TEMP:  57;

ELKHART*       CLEAR     55  55 100 E3        30.17R FOG
GOSHEN         CLEAR     57  54  89 SE6       30.17R FOG
6HR MIN TEMP:  56; 6HR MAX TEMP:  57;

MONTICELLO*    CLEAR     58  57  97 SE3       30.15R
6HR MIN TEMP:  58; 6HR MAX TEMP:  62;

LOGANSPORT*    CLEAR     54  52  94 E5        30.17R FOG
ROCHESTER*     PTCLDY    59  59 100 E5        30.17R
WARSAW*        CLEAR     54  54 100 SE3       30.17R FOG
ANGOLA*        MOCLDY    57  55  94 CALM      30.19R
FORT WAYNE     PTCLDY    56  53  90 CALM      30.19R FOG
6HR MIN TEMP:  54; 6HR MAX TEMP:  59;

HUNTINGTON*    CLEAR     54  51  89 CALM      30.18R FOG
6HR MIN TEMP:  52; 6HR MAX TEMP:  57;

PERU/GRISSOM   CLEAR     57  55  91 SE7       30.17R
6HR MIN TEMP:  55; 6HR MAX TEMP:  61;

MARION*        CLEAR     53  48  83 CALM      30.19R
6HR MIN TEMP:  49; 6HR MAX TEMP:  89;


$$
INZ028>050-281300-
CENTRAL INDIANA

CITY           SKY/WX    TMP DP  RH WIND       PRES   REMARKS
LAFAYETTE      CLEAR     58  55  90 CALM      30.16R
6HR MIN TEMP:  56; 6HR MAX TEMP:  61;

KOKOMO*        CLEAR     55  52  88 SE6       30.18R
6HR MIN TEMP:  54; 6HR MAX TEMP:  57;

MUNCIE*        PTCLDY    56  55  97 CALM      30.19R
6HR MIN TEMP:  52; 6HR MAX TEMP:  56;

INDIANAPOLIS   PTCLDY    60  56  86 SE3       30.16R
6HR MIN TEMP:  59; 6HR MAX TEMP:  64;


$$
MIZ043>046-050>051-056>058-064>065-071>073-077>080-281300-
SOUTHWEST LOWER MICHIGAN

CITY           SKY/WX    TMP DP  RH WIND       PRES   REMARKS
BATTLE CREEK   PTCLDY    57  54  89 S5        30.19R
6HR MIN TEMP:  55; 6HR MAX TEMP:  57;

BENTON HARBOR  CLEAR     57  54  89 SE6       30.15R FOG
6HR MIN TEMP:  55; 6HR MAX TEMP:  59;

COLDWATER*     MOCLDY    56  55  99 SE5       30.18R FOG
6HR MIN TEMP:  50; 6HR MAX TEMP:  56;

HILLSDALE*     CLOUDY    57  57 100 S7        30.20R FOG
6HR MIN TEMP:  51; 6HR MAX TEMP:  57;

HOLLAND        PTCLDY    54  52  93 SE3       30.17R
6HR MIN TEMP:  53; 6HR MAX TEMP:  55;

GRAND RAPIDS   MOCLDY    55  54  96 CALM      30.18R
6HR MIN TEMP:  51; 6HR MAX TEMP:  55;

KALAMAZOO      PTCLDY    56  53  90 S6        30.19R FOG
6HR MIN TEMP:  55; 6HR MAX TEMP:  59;

STURGIS*       PTCLDY    55  55 100 SE3       30.18R FOG
THREE RIVERS*  FAIR      53  52  97 CALM      30.18R FOG

$$
OHZ001>008-015>018-024>025-281300-
NORTHWEST OHIO

CITY           SKY/WX    TMP DP  RH WIND       PRES   REMARKS
WAUSEON*       FOG       50  50 100 CALM      30.20S VSB<1/4
DEFIANCE       SUNNY     54  52  93 CALM      30.19F FOG
6HR MIN TEMP:  52; 6HR MAX TEMP:  58;

FINDLAY        SUNNY     57  54  89 SE3       30.19S FOG
6HR MIN TEMP:  54; 6HR MAX TEMP:  58;

TOLEDO EXPRESS SUNNY     52  51  97 CALM      30.20R
6HR MIN TEMP:  50; 6HR MAX TEMP:  54;

TOLEDO METCALF SUNNY     56  53  90 CALM      30.21R
6HR MIN TEMP:  53; 6HR MAX TEMP:  58;

LIMA           SUNNY     57  55  93 SE3       30.19S
6HR MIN TEMP:  52; 6HR MAX TEMP:  57;


$$
AND FOR LAKE MICHIGAN COASTAL AND OPEN LAKE BUOY OBSERVATIONS

STATION/POSITION TEMP    WIND        PRES    VSBY  WAVE
                 AIR SEA DIR/SP/G                  HT/PER
                 (F)     (DEG/KT/KT) (MB)    (MI)  (FT/S)
CALUMET HARBOR    61     150/  3/  6   N/A
MICHIGAN CITY     60     120/ 10/ 12   N/A
BURNS HARBOR      62     170/ 11/ 16 1020.3S
SAINT JOSEPH      58     120/  2/  6 1022.0R
SOUTH LAKE BUOY   66 67  170/ 10/ 14 1020.4          2/ 4
4 MI NW BRIDGMAN  62 71  190/ 14/ 16   N/A           1/ 2
MICHIGAN CITY     62 70  180/ 12/ 16   N/A           1/ 2

$$
&&


USA.gov is the U.S. government's official web portal to all federal, state and local government web resources and services.